Regional Weather Roundup
Issued by NWS

Home | Current Version | Previous Version | Text Only | Print | Product List | Glossary Off
Versions: 1 2 3 4 5 6 7 8 9 10 11 12 13 14 15 16 17 18 19 20 21 22 23 24 25 26 27 28 29 30 31 32 33 34 35 36 37 38 39 40 41 42 43 44 45 46 47 48 49 50

000
ASUS45 KCYS 010310
RWRWY

WYOMING REGIONAL WEATHER ROUNDUP
NATIONAL WEATHER SERVICE CHEYENNE WY
900 PM MDT TUE MAR 31 2015

NOTE:  "FAIR" INDICATES FEW OR NO CLOUDS BELOW 12,000 FEET
WITH NO SIGNIFICANT WEATHER AND/OR OBSTRUCTIONS TO VISIBILITY.

WYZ001-010400-
YELLOWSTONE NATIONAL PARK

CITY           SKY/WX    TMP DP  RH WIND       PRES   REMARKS
LK YELLOWSTONE   N/A     41  21  44 VRB5      29.83F
W YELLOWSTONE  NOT AVBL

$$
WYZ002>013-054>058-071-098>099-010400-
NORTHERN WYOMING

CITY           SKY/WX    TMP DP  RH WIND       PRES   REMARKS
JACKSON        FAIR      50  21  32 SW7       29.78R
CODY           FAIR      61  21  21 W12G20    29.66S
GREYBULL       FAIR      65  18  16 SE5       29.59S
WORLAND        FAIR      56  26  31 S8        29.61F
SHERIDAN       FAIR      57  25  29 VRB6      29.58S
BUFFALO        FAIR      63  19  18 SE8       29.66S
GILLETTE       FAIR      60  21  22 S12       29.63F
HULETT         FAIR      61  19  20 S7        29.65F
NEWCASTLE      FAIR      61  12  15 E8        29.69S

$$
WYZ014>020-022>026-101>103-010400-
CENTRAL WYOMING

CITY           SKY/WX    TMP DP  RH WIND       PRES   REMARKS
BIG PINEY      FAIR      41  12  30 W8        29.84S
PINEDALE       FAIR      43  16  33 CALM      29.84F
DUBOIS         CLOUDY    52  14  22 NW13      29.80R
LANDER         FAIR      64  14  14 VRB3      29.71S
RIVERTON       FAIR      59  18  20 W9        29.72S
CASPER         FAIR      57  18  21 SW8       29.73S
DOUGLAS        FAIR      57  20  23 S7        29.74R

$$
WYZ021-027>030-104>119-010400-
SOUTHERN WYOMING

CITY           SKY/WX    TMP DP  RH WIND       PRES   REMARKS
EVANSTON       CLOUDY    53  24  32 W24G36    29.87R
KEMMERER       MOCLDY    52  21  30 SW24G36   29.88R
FORT BRIDGER   FAIR      56  13  18 SW14      29.88S
ROCK SPRINGS   NOT AVBL
DIXON          FAIR      59  21  23 S10G17    29.89S
RAWLINS        FAIR      53  13  20 W9        29.85F
SARATOGA       FAIR      52  19  28 S12       29.90S
LARAMIE        FAIR      47  16  29 W8        29.91S
CHEYENNE       FAIR      53  17  24 W7        29.87R
TORRINGTON     FAIR      64  20  18 SE7       29.72S
PINE BLUFFS    FAIR      55  18  22 SW10      29.83S

$$


USA.gov is the U.S. government's official web portal to all federal, state and local government web resources and services.